Annette Island, AK

11:16 AM AKDT on July 28, 2017 (GMT -0800)
Annette Island

Weather History for PANT - February, 2013

Change the Weather History Date:

Sunday, February 17, 2013

  Actual Average Record
Temperature  
Mean Temperature 38 °F 38 °F  
Max Temperature 40 °F 43 °F 53 °F (2015)
Min Temperature 35 °F 33 °F 8 °F (1948)
Degree Days  
Heating Degree Days 27 27  
Month to date heating degree days 416 462  
Since 1 July heating degree days 4239 4241  
Cooling Degree Days 0    
Month to date cooling degree days 0  
Year to date cooling degree days 0  
Moisture  
Dew Point 34 °F    
Average Humidity 0    
Maximum Humidity 0    
Minimum Humidity 0    
Precipitation  
Precipitation 0.03 in 0.25 in 2.98 in (1965)
Month to date precipitation 7.74 4.62  
Year to date precipitation 15.94 15.35  
Snow  
Snow 0.00 in 0.30 in 5.60 in (1967)
Month to date snowfall 0.0 4.3  
Since 1 July snowfall 11.9 23.6  
Snow Depth 0.00 in    
Sea Level Pressure  
Sea Level Pressure 30.02 in    
Wind  
Wind Speed 7 mph (SE)    
Max Wind Speed 18 mph    
Max Gust Speed 24 mph    
Visibility 9 miles    
Events Rain    
T = Trace of Precipitation, MM = Missing Value Source: NWS Daily Summary

Daily Weather History Graph

Daily Weather History Graph

Search for Another Location

Airport or City:

Trip Planner

Search our weather history database for the weather conditions in past years. The results will help you decide how hot, cold, wet, or windy it might be!

Date:

Astronomy

Feb. 17, 2013 Rise Set
Actual Time 7:03 AM AKST 4:58 PM AKST
Civil Twilight 6:25 AM AKST 5:35 PM AKST
Nautical Twilight 5:43 AM AKST 6:17 PM AKST
Astronomical Twilight 5:01 AM AKST 6:59 PM AKST
Moon 9:41 AM AKST (2/17) 1:17 AM AKST (2/17)
Length of Visible Light 11h 09m
Length of Day
9h 54m
Waxing Crescent, 50% of the Moon is Illuminated
Feb 17
Waxing Crescent
Feb 25
Full
Mar 4
Last Quarter
Mar 11
New
Mar 19
First Quarter

Hourly Weather History & Observations

Time (AKST) Temp. Windchill Dew Point Humidity Pressure Visibility Wind Dir Wind Speed Gust Speed Precip Events Conditions
12:53 AM 36.0 °F - 32.0 °F 86% 30.22 in 10.0 mi Calm Calm - N/A   Overcast
1:53 AM 36.0 °F - 33.1 °F 89% 30.22 in 10.0 mi Calm Calm - N/A   Overcast
3:53 AM 36.0 °F - 33.1 °F 89% 30.18 in 10.0 mi Calm Calm - N/A   Overcast
4:53 AM 36.0 °F - 33.1 °F 89% 30.17 in 10.0 mi Calm Calm - N/A   Overcast
5:53 AM 36.0 °F - 34.0 °F 93% 30.15 in 10.0 mi Calm Calm - N/A   Overcast
6:53 AM 37.0 °F 34.5 °F 33.1 °F 86% 30.13 in 10.0 mi ESE 3.5 mph - N/A   Overcast
7:53 AM 37.9 °F 34.4 °F 30.0 °F 73% 30.11 in 10.0 mi SE 4.6 mph - N/A   Overcast
8:12 AM 37.4 °F 32.1 °F 32.0 °F 81% 30.10 in 10.0 mi South 6.9 mph - N/A   Overcast
8:19 AM 37.4 °F 34.9 °F 30.2 °F 75% 30.09 in 10.0 mi Variable 3.5 mph - N/A   Overcast
8:53 AM 37.9 °F 33.5 °F 32.0 °F 79% 30.09 in 10.0 mi SSE 5.8 mph - N/A   Overcast
9:34 AM 37.4 °F 32.1 °F 32.0 °F 81% 30.08 in 10.0 mi ESE 6.9 mph - N/A   Overcast
9:43 AM 37.4 °F 32.1 °F 32.0 °F 81% 30.07 in 10.0 mi SE 6.9 mph - N/A   Overcast
9:53 AM 39.0 °F 32.8 °F 32.0 °F 76% 30.08 in 10.0 mi SE 9.2 mph - N/A   Overcast
10:39 AM 39.2 °F 32.0 °F 30.2 °F 70% 30.07 in 10.0 mi SSE 11.5 mph 20.7 mph 0.00 in Rain Light Rain
10:53 AM 37.9 °F 32.1 °F 32.0 °F 79% 30.08 in 9.0 mi SSE 8.1 mph - 0.00 in Rain Light Rain
11:43 AM 37.4 °F 29.8 °F 33.8 °F 87% 30.05 in 10.0 mi SE 11.5 mph 19.6 mph 0.00 in Rain Light Rain
11:53 AM 37.9 °F 30.9 °F 33.1 °F 83% 30.05 in 10.0 mi SE 10.4 mph - 0.00 in   Overcast
12:16 PM 37.4 °F 31.4 °F 33.8 °F 87% 30.03 in 10.0 mi ESE 8.1 mph - N/A   Overcast
12:53 PM 39.0 °F 30.3 °F 34.0 °F 82% 30.03 in 10.0 mi SE 16.1 mph 21.9 mph 0.00 in Rain Light Rain
1:53 PM 39.0 °F 31.8 °F 34.0 °F 82% 29.99 in 10.0 mi ESE 11.5 mph 19.6 mph 0.01 in Rain Light Rain
2:53 PM 39.0 °F 31.8 °F 35.1 °F 86% 29.97 in 8.0 mi SE 11.5 mph - 0.02 in Rain Rain
3:53 PM 39.0 °F 31.0 °F 36.0 °F 89% 29.94 in 10.0 mi SE 13.8 mph 19.6 mph 0.02 in   Overcast
4:03 PM 39.2 °F 32.0 °F 35.6 °F 87% 29.94 in 10.0 mi SE 11.5 mph 23.0 mph 0.00 in Rain Light Rain
4:13 PM 37.4 °F 28.9 °F 35.6 °F 93% 29.93 in 9.0 mi SE 13.8 mph 20.7 mph 0.00 in Rain Light Rain
4:20 PM 39.2 °F 30.5 °F 35.6 °F 87% 29.92 in 8.0 mi SE 16.1 mph 24.2 mph 0.01 in Rain Light Rain
4:40 PM 39.2 °F 32.0 °F 35.6 °F 87% 29.92 in 10.0 mi SE 11.5 mph 21.9 mph 0.01 in Rain Light Rain
4:53 PM 39.0 °F 30.6 °F 36.0 °F 89% 29.92 in 7.0 mi SE 15.0 mph 25.3 mph 0.01 in Rain Light Rain
5:53 PM 39.0 °F 29.3 °F 36.0 °F 89% 29.91 in 7.0 mi SE 19.6 mph 27.6 mph 0.03 in Rain Rain
6:53 PM 39.0 °F 30.6 °F 37.0 °F 93% 29.88 in 9.0 mi SE 15.0 mph 27.6 mph 0.16 in Rain Light Rain
7:53 PM 39.0 °F 30.3 °F 37.0 °F 93% 29.87 in 8.0 mi SE 16.1 mph 25.3 mph 0.06 in Rain Light Rain
8:53 PM 39.9 °F 30.8 °F 37.0 °F 89% 29.86 in 7.0 mi SSE 18.4 mph 28.8 mph 0.07 in Rain Light Rain
9:53 PM 39.0 °F 31.0 °F 37.0 °F 93% 29.84 in 9.0 mi SE 13.8 mph - 0.06 in Rain Light Rain
10:53 PM 37.0 °F 26.7 °F 35.1 °F 93% 29.83 in 6.0 mi SE 19.6 mph 25.3 mph 0.11 in Rain Rain
11:53 PM 36.0 °F 26.3 °F 34.0 °F 93% 29.82 in 6.0 mi ESE 16.1 mph 24.2 mph 0.14 in Rain Rain